Location: Newark
(7.0858°N, 171.3717°E)
Time: 07:48:58
(UTC+00:00)

Courier 1B - Pass Details

Date: 27 November 2020
Orbit: 962 x 1209 km, 28.3° (Epoch: 20 January)

Event Time Altitude Azimuth Distance (km) Brightness Sun altitude
Rises 09:47:21 0° 266° (W) 3,662 11.1 -50.0°
Enters shadow 09:49:51 - 274° (W) 2,857 10.3 -50.6°
Reaches altitude 10° 09:50:15 10° 276° (W) 2,737 - -50.7°
Maximum altitude 09:56:05 32° 337° (NNW) 1,664 - -52.0°
Drops below altitude 10° 10:02:12 10° 39° (NE) 2,874 - -53.3°
Sets 10:05:21 0° 49° (NE) 3,873 - -54.0°
